Weather in Aksenovo

Russia / Omsk Oblast     57°41′19″N   71°30′51″E
temp.,
°C
wind,
m/s
gust,
m/s
humid.,
%
clouds,
%
prec.,
mm/h
press.,
hPa
HPBL,
m
7 may, fri
fri700:00+8w310635 0.0 1009399
03:00+6wsw411695 0.0 1010470
06:00+6w410695 0.0 1011942
09:00+8w610505 0.0 10131331
12:00+11w610340 0.0 10141589
15:00+15wnw711260 0.0 10151792
18:00+17w512320 0.0 10151941
21:00+13w310465 0.0 1016320
8 may, sat
sat800:00+12wsw41454100 0.0 1017489
03:00+9wsw311705 0.0 1018208
06:00+9wsw3126941 0.0 1018265
09:00+16w48504 0.0 1018511
12:00+21wnw47395 0.0 10182099
15:00+23wnw462950 0.0 10172918
18:00+21nne443933 0.0 10171066
21:00+15ene246279 0.0 101865
9 may, sun
sun900:00+13e2267100 0.0 101945
03:00+11e247796 0.0 101967
06:00+10ene37788 0.0 1020151
09:00+15e35495 0.0 1020438
12:00+19e343964 0.0 10201212
15:00+20ene4436100 0.0 10202062
18:00+19ene443833 0.0 10202038
21:00+14ene275778 0.0 1021142
10 may, mon
mon1000:00+11ene39646 0.0 1022203
03:00+8e27704 0.0 1022138
06:00+8ene286497 0.0 1023240
09:00+13ene354473 0.0 1024777
12:00+15ne45397 0.0 10231684
15:00+17ne453535 0.0 10222149
18:00+14ene4745100 0.0 1022925
21:00+11ene26579 0.0 1023250
11 may, tue
tue1100:00+7ne257363 0.0 1023104
03:00+5ne24805 0.0 102382
06:00+5ene25795 0.0 1024118
09:00+11e24495 0.0 1024698
12:00+16e12365 0.0 10231811
15:00+18ne11305 0.0 10222146
18:00+17ne11305 0.0 10212137
21:00+12ne2249100 0.0 102229